This is the latest recevied weather packets stored in our database for station/object KB3HLL. If no packets are shown the sender has not sent any weather packets the latest 1 day(s).
| Time | Temp. | Humidity | Pressure | Rain* | Wind** | Luminosity | Snow |
|---|---|---|---|---|---|---|---|
| 1778015480 | 21.67° C | 55% | 1009.9 hPa | 0 mm | 1.34 m/s, 272° | 207 W/m² | - |
| 1778015178 | 22.22° C | 55% | 1010 hPa | 0 mm | 0.45 m/s, 298° | 167 W/m² | - |
| 1778014877 | 22.22° C | 55% | 1010 hPa | 0 mm | 0.89 m/s, 290° | 150 W/m² | - |
| 1778014579 | 22.22° C | 54% | 1010 hPa | 0 mm | 0.45 m/s, 255° | 221 W/m² | - |
| 1778014278 | 21.67° C | 54% | 1009.9 hPa | 0 mm | 0.89 m/s, 282° | 404 W/m² | - |
| 1778013979 | 21.67° C | 54% | 1009.9 hPa | 0 mm | 0.89 m/s, 244° | 213 W/m² | - |
| 1778013680 | 21.67° C | 54% | 1010 hPa | 0 mm | 0.89 m/s, 289° | 129 W/m² | - |
| 1778013377 | 21.67° C | 54% | 1010 hPa | 0 mm | 1.79 m/s, 239° | 173 W/m² | - |
| 1778013079 | 21.67° C | 54% | 1010 hPa | 0 mm | 0.89 m/s, 243° | 159 W/m² | - |
| 1778012780 | 21.67° C | 54% | 1010.1 hPa | 0 mm | 1.34 m/s, 271° | 127 W/m² | - |
| 1778012479 | 22.22° C | 54% | 1010.2 hPa | 0 mm | 2.24 m/s, 258° | 76 W/m² | - |
| 1778012180 | 22.22° C | 50% | 1010.1 hPa | 0 mm | 1.79 m/s, 239° | 77 W/m² | - |
| 1778011879 | 22.78° C | 50% | 1009.9 hPa | 0 mm | 0.89 m/s, 226° | 106 W/m² | - |
| 1778011579 | 22.78° C | 49% | 1009.9 hPa | 0 mm | 1.34 m/s, 265° | 180 W/m² | - |
| 1778011279 | 22.78° C | 49% | 1009.8 hPa | 0 mm | 2.24 m/s, 233° | 229 W/m² | - |
| 1778010980 | 22.78° C | 49% | 1010 hPa | 0 mm | 1.34 m/s, 236° | 172 W/m² | - |
| 1778010680 | 22.78° C | 48% | 1009.8 hPa | 0 mm | 2.24 m/s, 201° | 103 W/m² | - |
| 1778010378 | 22.78° C | 48% | 1009.9 hPa | 0 mm | 1.79 m/s, 246° | 93 W/m² | - |
| 1778010080 | 22.78° C | 48% | 1009.9 hPa | 0 mm | 1.79 m/s, 234° | 118 W/m² | - |
| 1778009780 | 22.78° C | 47% | 1009.9 hPa | 0 mm | 2.68 m/s, 258° | 149 W/m² | - |
| 1778009479 | 23.33° C | 47% | 1009.8 hPa | 0 mm | 1.34 m/s, 236° | 175 W/m² | - |
| 1778009180 | 23.33° C | 47% | 1009.8 hPa | 0 mm | 1.79 m/s, 208° | 166 W/m² | - |
| 1778008877 | 23.33° C | 47% | 1009.8 hPa | 0 mm | 1.79 m/s, 253° | 245 W/m² | - |
| 1778008586 | 23.89° C | 46% | 1009.8 hPa | 0 mm | 1.34 m/s, 252° | 303 W/m² | - |
| 1778008277 | 23.33° C | 46% | 1009.8 hPa | 0 mm | 1.34 m/s, 182° | 1006 W/m² | - |
* Rain latest hour (hover to see other rain measurements)
** Current wind speed in m/s (hover to see current wind gust speed)